Weather Roundup
Issued by NWS Springfield, MO

Home | Current Version | Previous Version | Text Only | Print | Product List | Glossary On
Versions: 1 2 3 4 5 6 7 8 9 10 11 12 13 14 15 16 17 18 19 20 21 22 23 24 25 26 27 28 29 30 31 32 33 34 35 36 37 38 39 40 41 42 43 44 45 46 47 48 49 50
000
NZUS99 KSGF 252107
HRRSGF

HOURLY WEATHER
NATIONAL WEATHER SERVICE SPRINGFIELD MO
400 PM CDT TUE APR 25 2017

......SGF CWA......

CITY           SKY/WX    TMP DP  RH WIND       PRES   REMARKS
SPRINGFIELD    SUNNY     80  58  46 SW17G29   29.43S
JOPLIN         CLOUDY    80  61  52 SW15G22   29.41F
WEST PLAINS    SUNNY     78  52  40 S16G26    29.53F
ROLLA          MOSUNNY   79  53  40 S23G32    29.44F
OSAGE BEACH    MOSUNNY   80  55  42 S13G26    29.45S
BRANSON        PTSUNNY   77  55  47 S12G21    29.48S

......SURROUNDING SGF CWA......

CITY           SKY/WX    TMP DP  RH WIND       PRES   REMARKS
CHANUTE        PTSUNNY   74  59  59 S14       29.41S
PARSONS        CLOUDY    74  60  61 S7G16     29.42S
COFFEYVILLE    CLOUDY    76  60  57 S12       29.40S
EMPORIA        CLOUDY    71  58  63 NW10      29.41R
GROVE OK       PTSUNNY   81  61  50 S18G30    29.44R
ROGERS AR      MOSUNNY   79  61  53 S20G29    29.46S
SILOAM SPRINGS MOSUNNY   77  59  53 S23G31    29.45S
HARRISON AR    PTSUNNY   79  58  48 S20G30    29.49F
NEAR YELLVILLE MOSUNNY  N/A N/A N/A S9G21     29.46F

......KANSAS AND MISSOURI......

CITY           SKY/WX    TMP DP  RH WIND       PRES   REMARKS
KANSAS CTY INT CLOUDY    71  57  61 SW7       29.41S
DOWNTOWN KC    CLOUDY    75  57  53 SW9       29.39S
COLUMBIA       CLOUDY    82  54  37 S17G26    29.42F
SEDALIA        CLOUDY    80  55  42 S18G25    29.41F
ST JOSEPH      CLOUDY    69  55  60 S5        29.42R
ST LOUIS       PTSUNNY   81  51  35 SE24G35   29.48F
SPIRIT OF STL  PTSUNNY   82  46  28 S16G26    29.46F
KIRKSVILLE     PTSUNNY   77  53  43 S10G21    29.42F
WICHITA        CLOUDY    68  56  65 N13       29.43R
TOPEKA         CLOUDY    72  56  57 CALM      29.40S
OLATHE         CLOUDY    71  58  63 SW8       29.41S

......TENNESSEE......

CITY           SKY/WX    TMP DP  RH WIND       PRES   REMARKS
MEMPHIS        MOSUNNY   81  53  37 S16G24    29.64F

......ARKANSAS.......

CITY           SKY/WX    TMP DP  RH WIND       PRES   REMARKS
FAYETTEVILLE   MOSUNNY   77  62  59 S23G33    29.46F
FT SMITH       CLOUDY    81  59  47 SW10G20   29.47S
LITTLE ROCK    MOSUNNY   81  59  47 S15       29.56F

......OKLAHOMA.......

CITY           SKY/WX    TMP DP  RH WIND       PRES   REMARKS
TULSA          PTSUNNY   80  62  54 S17       29.37F
PONCA CITY     CLOUDY    82  57  42 W8        29.37R
MCALESTER      CLOUDY    78  64  61 S14G29    29.45F
OKLAHOMA CITY  CLOUDY    80  61  52 S20G26    29.38R

......IOWA............

CITY           SKY/WX    TMP DP  RH WIND       PRES   REMARKS
DES MOINES     CLOUDY    72  48  42 SE12      29.42S
QUAD CITIES    MOSUNNY   79  43  27 SE21G26   29.46F

......ILLINOIS........

CITY           SKY/WX    TMP DP  RH WIND       PRES   REMARKS
QUINCY         PTSUNNY   77  48  35 SE17G24   29.44F
CHICAGO        PTSUNNY   78  49  35 S13       29.56F




USA.gov is the U.S. government's official web portal to all federal, state and local government web resources and services.